Regional Weather Roundup
Issued by NWS Wakefield, VA

Home | Current Version | Previous Version | Graphics & Text | Print | Product List | Glossary On
Versions: 1 2 3 4 5 6 7 8 9 10 11 12 13 14 15 16 17 18 19 20 21 22 23 24 25 26 27 28 29 30 31 32 33 34 35 36 37 38 39 40 41 42 43 44 45 46 47 48 49 50
806
ASUS41 KAKQ 222315
RWRAKQ

REGIONAL WEATHER ROUNDUP
NATIONAL WEATHER SERVICE WAKEFIELD VA
600 PM EST WED NOV 22 2017

Note: "fair" indicates few or no clouds below 12,000 feet with no
significant weather and/or obstructions to visibility. * = Denotes
station may not report precipitation (e.g., rain,snow,etc.),
thunder or fog.

VAZ042-051-052>054-056-230000-
NORTHERN VIRGINIA

CITY           SKY/WX    TMP DP  RH WIND       PRES   REMARKS
WASH NATIONAL  PTCLDY    45  26  47 NW12G21   30.13R
DULLES         PTCLDY    42  25  50 NW14      30.14R
FORT BELVOIR   PTCLDY    45  25  46 NW10      30.13R
QUANTICO       NOT AVBL
FREDERICKSBRG* PTCLDY    46  30  54 N13G20    30.11R
STAFFORD*      CLEAR     42  27  55 NW15G22   30.17R
WARRENTON      NOT AVBL
CULPEPER*      CLEAR     43  24  48 N13       30.15R
MANASSAS*      PTCLDY    42  25  50 NW14      30.15R
LEESBURG*      PTCLDY    41  28  60 N12G17    30.14R
WINCHESTER     PTCLDY    36  23  60 N5        30.15R
FRONT ROYAL*   CLEAR     37  25  60 N5        30.14R
LURAY*         CLEAR     39  27  60 NW15G23   30.13S
$$

VAZ048-049-060>072-079>083-230000-
CENTRAL AND SOUTH CENTRAL VIRGINIA

CITY           SKY/WX    TMP DP  RH WIND       PRES   REMARKS
RICHMOND       PTCLDY    48  30  49 N12       30.08R
CHESTERFIELD*  NOT AVBL
PETERSBURG*    CLEAR     52 -24   4 N12       30.07R
HANOVER        CLEAR     48  26  42 NW8       30.11R
TAPPAHANNOCK*    N/A    N/A N/A N/A MISG        N/A
QUINTON*       FAIR      49  30  49 N12G20    30.07R
CHARLOTTSVILLE PTCLDY    43  24  47 N6        30.13R
GORDONSVILLE*  CLEAR     43  25  48 N5        30.13R
ORANGE*        CLEAR     41  27  56 CALM      30.13R
LOUISA*        CLEAR     44  24  45 NW9       30.16R
BUMPASS*       FAIR      46  24  43 NW7       30.11R
FARMVILLE*     CLEAR     50  28  42 N5        30.08R
CREWE*         FAIR      51  28  40 N6        30.06R
FORT PICKETT*  NOT AVBL
CHASE CITY*    FAIR      49  31  49 NW3       30.07R
CLARKSVILLE*   FAIR      52  28  40 NW3       30.06R
SOUTH HILL*    CLEAR     52  34  51 N7        30.11R
LAWRENCEVILLE* FAIR      51  31  47 N3        30.05R
EMPORIA*       CLEAR     46  36  66 CALM      30.06R
$$

VAZ088>098-230000-
SOUTHEAST VIRGINIA

CITY           SKY/WX    TMP DP  RH WIND       PRES   REMARKS
NORFOLK        PTCLDY    54  36  50 N17G25    30.04R
VIRGINIA BEACH PTCLDY    52  33  48 N15G23    30.03R
NORFOLK NAVAL  CLOUDY    53  34  48 N17G28    30.06R
WEST POINT*    CLEAR     48  29  47 NW6       30.09R
SALUDA*        FAIR      48  34  56 NW8G18    30.06R
NEWPORT NEWS   CLOUDY    51  34  52 N16G23    30.06R
LANGLEY AFB    PTCLDY    51  34  53 N20G25    30.05R
FORT EUSTIS    CLEAR     52  34  50 N9        30.03R
WILLIAMSBURG*  CLEAR     52  36  54 N12G18    30.07R
HR EXEC AP*    NOT AVBL
FRANKLIN*      CLEAR     53  36  53 N5        30.04R
US460-WAKEFLD  CLEAR     52  37  56 N6        30.05R
$$

VAZ020-022-025-037-045-230000-
WEST CENTRAL AND SOUTHWEST VIRGINIA

CITY           SKY/WX    TMP DP  RH WIND       PRES   REMARKS
STAUNTON*      CLEAR     37  23  56 N6        30.16R
WAYNESBORO*    PTCLDY    38  22  52 N5        30.12R
HOT SPRINGS VA CLEAR     29  18  65 NW12G18   30.07R WCI  19
LYNCHBURG      CLEAR     45  21  38 VRB6      30.10R
DANVILLE       CLEAR     49  26  41 N10       30.09R
SOUTH BOSTON*  FAIR      50  25  37 NW8       30.08R
MARTINSVILLE   CLEAR     46  24  42 N6        30.12R
ROANOKE        CLEAR     42  24  49 NW15      30.15R
BLACKSBURG     CLEAR     38  25  60 NW12      30.15R
DUBLIN*        CLEAR     39  27  61 N13G20    30.13S
MARION*        CLEAR     39  22  50 NW6       30.14S
HILLSVILLE*    CLEAR     39  23  52 N13       30.07S
RICHLANDS*     FAIR      35  24  64 NW8       30.14S
WISE*          CLEAR     34  28  80 N6        30.15S
ABINGDON*      CLEAR     40  25  53 E5        30.13S
$$

MDZ021>025-VAZ099-100-230000-
SOUTHERN MARYLAND AND THE DELMARVA PENINSULA

CITY           SKY/WX    TMP DP  RH WIND       PRES   REMARKS
PATUXENT RIVER NOT AVBL
BAY BRIDGE APT CLOUDY    48  30  49 NW15G23   30.09R
LEONARDTOWN    CLEAR     45  30  57 NW6       30.10R
DOVER          CLOUDY    47  27  45 NW13      30.06R
GEORGETOWN     CLEAR     48  30  49 NW9       30.04R
EASTON         MOCLDY    46  30  53 N6        30.11R
CAMBRIDGE      CLEAR     46  32  57 NW10      30.06R
SALISBURY      CLEAR     47  32  56 NW13G21   30.05R
OCEAN CITY     CLEAR     48  32  53 NW9       30.03R
WALLOPS ISLAND CLEAR     48  32  53 NW12G20   30.05R
ACCOMACK*      CLEAR     49  33  54 N13G25    30.05R
$$

NCZ012>017-030>032-230000-
NORTH CENTRAL AND EASTERN NORTH CAROLINA

CITY           SKY/WX    TMP DP  RH WIND       PRES   REMARKS
ROANOKE RAPIDS FAIR      50  39  66 CALM      30.03R
RALEIGH        MOCLDY    54  26  34 VRB3      30.06R
ELIZABETH CITY PTCLDY    55  44  66 N12       30.02R
AHOSKIE*       CLEAR     52  37  57 CALM      30.03R
EDENTON*       CLEAR     56  48  76 CALM      30.02R
CURRITUCK*     CLEAR     53  43  69 N10G16    30.02R
KILL DEVIL HLS CLEAR     56  39  52 N8G16     29.99R
MANTEO         CLEAR     56  41  58 NE13G20   30.01R
CAPE HATTERAS  CLEAR     57  49  74 NE9       30.00R
TARBORO*       NOT AVBL
GOLDSBORO      CLEAR     57  34  41 CALM      30.02R
WASHINGTON     CLOUDY    57  47  69 CALM      30.02R
GREENVILLE     CLEAR     55  37  50 CALM      30.04R
NEW BERN       CLEAR     54  46  74 N3        30.02R
WILMINGTON     CLEAR     59  45  59 N7        30.01R
$$

VAZ048-230000-
ELSEWHERE

CITY           SKY/WX    TMP DP  RH WIND       PRES   REMARKS
HARRISBURG PA  MOCLDY    41  23  48 NW14      30.12R
BALTIMORE      PTCLDY    43  27  53 NW13      30.10R
ANNAPOLIS      MOCLDY    48  31  51 NW9       30.10R
ANDREWS AFB    PTCLDY    43  25  48 NW18G28   30.10R
PHILADELPHIA   MOCLDY    46  25  43 NW16G28   30.06R
HENDERSON NC   PTCLDY    51  27  38 CALM      30.05R
GREENSBORO     CLOUDY    52  27  38 N8        30.07R
ROCKY MOUNT    CLOUDY    52  37  56 NW5       30.04R
$$

VAZ100-230000-
MARINE

STATION/POSITION TIME  TEMP    WIND        PRES    WAVE   SWELL
                       AIR SEA DIR/SP/G            HT/PER HT/PER
                 (UTC) (F)     (DEG/KT/KT) (MB)    (FT/S) (FT/S)
BRANDYWINE LGT   2248          330/ 21/ 29 1016.8R
CAPE MAY NJ      2248   49 50  330/ 11/ 24 1016.2R
LEWES DE         2248   49 52  340/ 27/ 32 1016.3R
15NM E FENWICK I 2250   52 58  310/ 27/ 31 1015.6R   6/ 5   2/10
OCEAN-CITY-INLET 2248   50 54  340/ 12/ 15 1016.9R
WACHAPREAGUE VA  2248   49 54  300/  6/ 18 1017.4R
THOMAS POINT MD  2300   47 53  300/ 17/ 19   N/A
GOOSES REEF MD   2250   49      10/ 21/ 25 1011.5F
COVE POINT MD    2248   49     350/ 24/ 29 1018.9R
SOLOMONS ISLAND  2248   48 54  330/ 11/ 16 1018.2R
BISHOPS HEAD MD  2248   47 51  330/  9/ 12 1018.6R
PINEY POINT MD   2248          360/ 14/ 15   N/A
POTOMAC MD       2250   49     350/ 14/ 17 1017.8R
CAMBRIDGE MD     2248                      1018.8R
LEWISETTA VA     2248   49 52  360/  9/ 16 1018.5R
RAPPAHANNOCK LGT 2248          340/ 23/ 29 1017.9R
STINGRAY PT      2250   51      10/ 16/ 19 1017.9R
YORK RVR RNG VA  2248   52     360/ 22/ 26 1017.7R
YORKTOWN VA      2248   52 55  360/ 12/ 18 1017.5R
JAMESTOWN VA     2250           20/ 12/ 21   N/A
DOMINION TERM VA 2248   54      60/  2/  5 1017.3R
KIPTOPEKE VA     2248      54  360/ 14/ 21   N/A
CAPE HENRY VA    2248   54     340/ 28/ 31   N/A
WILLOUBY STN VA  2248   53     360/ 18/ 21 1017.1R
S CRANEY ISL VA  2248   54      10/ 17/ 23 1016.7R
CAPE HENRY BUOY  2300      58                N/A     5/ 8
1ST LANDING BUOY 2250   53      20/ 23/ 27 1017.5R
CAPE CHARLES BUO 2251      59                N/A     4/ 5
64NM E OF VA BCH 2250   57 62  330/ 25/ 29 1015.4R   8/ 6
DUCK PIER NC     2248   58 60   10/ 20/ 25 1015.1R
44100 DUCK FRF   2245      61                N/A     7/ 6   2/11
44056 DUCK FRF   2300      61                N/A     6/ 6
OREGON INLET NC  2248          350/ 13/ 20 1015.7R
HATTERAS NC      2248   58 60   20/ 13/ 17 1015.5R
DIAMOND SHLS NC  2300   62 74   10/ 21/ 27 1015.7
CAPE LOOKOUT NC  2300           40/ 15/ 16 1016.5R
$$




USA.gov is the U.S. government's official web portal to all federal, state and local government web resources and services.